Hourly Data Report for February 16, 2021

TORONTO CITY
ONTARIO
Current Station Operator: ECCC - MSC

43°40'00.000" N
79°24'00.000" W
112.50 m
6158355
71508
XTO

Download Data

Hourly Data (February 2021)
Hourly Data Report for February 16, 2021
TIME
LST
Temp Definition
°C
Dew Point Definition
°C
Rel Hum Definition
%
Precip. Amount Definition
mm

Wind Dir Definition
10's deg

Wind Spd Definition
km/h
Visibility Definition
km
Stn Press Definition
kPa
Hmdx Definition


Wind Chill Definition


Weather Definition


00:00 -8.0 -10.1 85 1.3       99.79     LegendNANA
01:00 -7.1 -8.8 88 1.5       99.77     LegendNANA
02:00 -6.8 -8.4 88 2.2       99.41     LegendNANA
03:00 -6.8 -9.1 84 0.5       99.31     LegendNANA
04:00 -7.7 -9.7 86 1.3       99.23     LegendNANA
05:00 -8.1 -10.0 86 1.4       99.24     LegendNANA
06:00 -8.2 -11.0 81 0.2       99.17     LegendNANA
07:00 -8.5 -12.4 73 0.1       99.10     LegendNANA
08:00 -8.7 -13.1 71 0.0       99.12     LegendNANA
09:00 -9.2 -13.5 71 0.0       99.15     LegendNANA
10:00 -9.6 -13.9 71 0.0       99.21     LegendNANA
11:00 -9.7 -14.3 69 0.0       99.20     LegendNANA
12:00 -9.2 -14.5 65 0.0       99.31     LegendNANA
13:00 -8.9 -14.4 64 0.0       99.39     LegendNANA
14:00 -8.3 -13.7 65 0.0       99.44     LegendNANA
15:00 -7.2 -13.3 61 0.0       99.56     LegendNANA
16:00 -6.6 -13.0 60 0.0       99.73     LegendNANA
17:00 -6.5 -11.9 65 0.0       99.88     LegendNANA
18:00 -8.1 -14.5 60 0.0       100.03     LegendNANA
19:00 -8.7 -15.1 60 0.0       100.19     LegendNANA
20:00 -9.2 -15.4 61 0.0       100.34     LegendNANA
21:00 -9.8 -15.7 62 0.0       100.46     LegendNANA
22:00 -10.7 -15.4 68 0.0       100.66     LegendNANA
23:00 -11.2 -15.4 71 0.0       100.74     LegendNANA

Notes on Data Quality.

Legend

  • E = Estimated
  • M = Missing
  • NA = Not Available*
  • [empty] = Indicates an unobserved value
Date modified: